Location: Observatory
(52.1446°N, 0.4624°W)
Time: 02:06:05
(UTC+01:00)

ISS - Pass Details

Date: 20 May 2018
Orbit: 402 x 406 km, 51.6° (Epoch: 21 June)

Event Time Altitude Azimuth Distance (km) Brightness Sun altitude
Exits shadow 02:07:01 - 272° (W) 1,711 -0.8 -16.4°
Reaches altitude 10° 02:07:38 10° 272° (W) 1,460 -1.2 -16.4°
Maximum altitude 02:10:54 82° 187° (S) 412 -4.0 -16.2°
Drops below altitude 10° 02:14:10 10° 98° (E) 1,458 -0.9 -16.0°
Sets 02:16:15 0° 97° (E) 2,317 0.2 -15.9°
